Location: Banios
(43.0451°N, 0.2335°E)
Time: 13:36:11
(UTC+00:00)

Envisat - Pass Details

Date: 25 January 2021
Orbit: 764 x 766 km, 98.1° (Epoch: 25 February)

Event Time Altitude Azimuth Distance (km) Brightness Sun altitude
Rises 06:13:58 0° 8° (N) 3,242 6.2 -12.3°
Reaches altitude 10° 06:16:19 10° 4° (N) 2,311 5.4 -11.9°
Maximum altitude 06:21:16 55° 288° (WNW) 922 3.1 -11.0°
Drops below altitude 10° 06:26:11 10° 212° (SSW) 2,294 5.3 -10.2°
Sets 06:28:31 0° 208° (SSW) 3,216 6.1 -9.8°
